Date,TemperatureHighF,TemperatureAvgF,TemperatureLowF,DewpointHighF,DewpointAvgF,DewpointLowF,HumidityHigh,HumidityAvg,HumidityLow,PressureMaxIn,PressureMinIn,WindSpeedMaxMPH,WindSpeedAvgMPH,GustSpeedMaxMPH,PrecipitationSumIn
2014-1-1,22.5,11.5,1.7,15.0,6.0,-1.0,92,79,61,30.40,30.10,9,1,11,0.00
2014-1-2,7.2,-1.9,-6.1,-1.0,-6.3,-9.0,86,82,70,30.45,29.98,14,7,19,0.00
2014-1-3,2.6,-2.6,-6.8,-3.0,-7.3,-10.0,86,81,68,30.34,29.82,15,6,24,0.00
2014-1-4,27.9,11.4,-8.2,20.0,5.2,-11.0,87,77,65,30.44,30.17,20,4,24,0.00
2014-1-5,33.6,24.1,11.5,33.0,18.3,9.0,96,79,55,30.29,30.06,7,1,17,0.00
2014-1-6,51.1,43.4,30.7,51.0,43.1,29.0,99,98,91,30.06,29.21,30,8,30,0.68
2014-1-7,31.0,17.7,8.6,28.0,6.0,-5.0,92,62,36,30.04,29.32,10,3,22,0.00
2014-1-8,21.9,14.4,7.4,9.0,4.8,-1.0,89,66,49,30.36,30.04,14,4,21,0.00
2014-1-9,25.7,16.0,6.7,10.0,7.3,4.0,91,71,42,30.62,30.34,5,1,10,0.00
2014-1-10,29.8,17.5,3.9,27.0,15.3,1.0,95,90,85,30.58,30.29,4,0,6,0.00
2014-1-11,50.1,39.4,24.8,50.0,38.8,23.0,99,97,94,30.29,29.18,25,8,40,0.60
2014-1-12,48.3,42.5,37.5,48.0,35.4,27.0,99,78,55,29.86,29.17,22,3,26,0.00
2014-1-13,41.3,37.3,32.0,40.0,31.9,26.0,95,81,66,30.08,29.86,18,6,20,0.00
2014-1-14,42.8,41.8,40.0,42.0,41.2,40.0,99,97,94,29.89,29.51,15,6,20,1.19
2014-1-15,42.0,37.0,30.0,41.0,36.0,30.0,99,96,87,30.01,29.59,10,1,13,0.05
2014-1-16,36.9,34.3,30.0,36.0,33.7,30.0,99,98,95,29.93,29.87,4,0,7,0.01
2014-1-17,41.8,35.5,28.5,40.0,34.0,28.0,98,94,85,29.94,29.88,15,3,18,0.01
2014-1-18,35.0,31.2,28.3,32.0,30.2,28.0,98,96,84,29.91,29.64,5,1,7,0.00
2014-1-19,32.8,30.8,29.6,32.0,29.2,26.0,98,94,84,29.68,29.40,13,3,18,0.00
2014-1-20,38.2,29.3,11.8,30.0,23.5,2.0,91,79,59,29.83,29.44,15,4,18,0.05
2014-1-21,13.9,9.0,3.5,1.0,-2.4,-6.0,69,60,51,30.07,29.84,9,3,13,0.00
2014-1-22,13.2,7.0,3.7,2.0,-2.2,-5.0,72,66,58,29.95,29.58,16,6,22,0.00
2014-1-23,19.8,9.6,-0.3,4.0,-1.1,-6.0,78,63,47,30.05,29.81,5,1,9,0.00
2014-1-24,15.1,9.0,2.1,5.0,-1.8,-5.0,86,63,45,30.16,30.02,5,1,7,0.00
2014-1-25,39.2,31.1,14.6,34.0,25.1,5.0,94,79,64,30.01,29.21,32,18,42,0.03
2014-1-26,27.7,17.8,11.4,26.0,5.4,-7.0,91,61,36,29.90,29.19,10,1,14,0.00
2014-1-27,42.9,29.6,15.0,40.0,20.3,0.0,97,70,37,29.92,29.42,23,6,32,0.05
2014-1-28,20.4,16.2,10.2,5.0,-1.8,-6.0,57,45,34,30.26,29.92,7,1,10,0.00
2014-1-29,24.3,16.7,14.0,4.0,1.0,-3.0,59,51,32,30.20,29.90,3,0,6,0.00
2014-1-31,30.6,28.4,25.8,23.0,21.6,20.0,82,76,66,30.14,30.06,1,0,1,0.00
2014-2-1,38.0,31.6,22.4,34.0,26.8,20.0,91,83,55,30.32,30.02,17,4,25,0.00
2014-2-2,41.5,37.1,31.6,37.0,34.6,31.0,97,90,81,30.02,29.82,13,2,16,0.02
2014-2-3,33.8,29.5,21.6,31.0,19.9,16.0,97,68,56,30.28,30.03,6,2,10,0.00
2014-2-4,30.9,23.7,15.3,22.0,16.8,13.0,90,76,54,30.43,30.28,9,2,13,0.00
2014-2-5,25.4,22.2,19.0,22.0,18.6,13.0,94,86,63,30.37,29.72,10,5,15,0.00
2014-2-6,24.6,17.4,11.4,17.0,13.1,9.0,93,83,62,30.23,29.91,10,2,11,0.00
2014-2-7,29.0,20.7,8.2,16.0,12.2,6.0,91,71,49,30.17,30.07,6,1,9,0.01
2014-2-8,28.9,21.6,11.8,14.0,10.3,7.0,86,63,43,30.21,30.10,6,1,11,0.00
2014-2-9,26.4,21.0,15.9,18.0,11.0,7.0,92,66,48,30.18,29.96,7,1,9,0.00
2014-2-10,25.7,20.4,12.0,19.0,13.3,5.0,93,75,56,30.16,29.89,7,2,11,0.00
2014-2-11,24.7,14.1,4.6,12.0,3.2,-4.0,90,65,41,30.38,30.16,8,2,11,0.00
2014-2-12,27.0,13.7,3.4,11.0,1.9,-5.0,90,62,32,30.53,30.38,7,1,13,0.00
2014-2-13,34.4,26.9,11.0,34.0,24.6,9.0,98,91,70,30.41,29.19,14,4,17,0.21
2014-2-14,35.2,32.2,26.8,35.0,28.6,19.0,98,87,67,29.62,28.68,13,3,15,0.34
2014-2-15,33.7,28.5,20.2,30.0,24.8,18.0,96,86,69,29.88,29.42,10,3,13,0.00
2014-2-16,30.0,24.0,16.4,25.0,14.7,5.0,96,69,50,29.88,29.34,11,3,17,0.00
2014-2-17,27.4,18.3,11.2,5.0,0.8,-3.0,63,48,30,30.34,29.89,10,2,14,0.00
2014-2-18,33.4,20.7,2.8,31.0,16.6,-1.0,97,84,60,30.38,29.87,11,3,15,0.00
2014-2-19,33.8,29.4,19.4,32.0,27.9,18.0,97,94,86,30.06,29.71,6,1,9,0.14
2014-2-20,45.2,36.5,30.9,36.0,32.5,29.0,97,86,55,30.19,29.74,9,2,17,0.38
2014-2-21,45.5,36.5,32.8,45.0,35.7,32.0,99,97,90,30.19,29.63,13,3,18,0.91
2014-2-22,43.9,38.2,29.2,36.0,32.3,24.0,99,81,50,29.87,29.72,18,6,27,0.01
2014-2-23,42.8,39.7,37.0,34.0,29.9,20.0,85,69,42,29.93,29.73,14,6,20,0.00
2014-2-24,41.7,30.6,19.0,23.0,13.4,4.0,66,50,38,29.85,29.64,6,2,13,0.00
2014-2-25,25.7,19.4,13.7,10.0,5.9,3.0,72,56,42,29.91,29.80,6,1,10,0.00
2014-2-26,26.8,17.3,7.6,20.0,9.0,0.0,90,71,54,29.91,29.70,14,2,24,0.00
2014-2-27,25.0,15.8,5.1,19.0,8.7,1.0,92,75,51,29.85,29.59,14,2,21,0.00
2014-2-28,22.5,16.7,11.4,13.0,-0.2,-6.0,83,50,29,30.45,29.74,7,2,13,0.00
2014-3-1,34.1,23.0,6.2,28.0,15.0,-3.0,82,71,53,30.46,30.04,21,8,25,0.00
2014-3-2,33.6,28.8,20.2,25.0,15.6,5.0,73,58,47,30.03,29.95,8,2,15,0.00
2014-3-3,22.7,16.6,10.1,4.0,-1.5,-6.0,63,46,31,30.27,30.01,7,2,11,0.00
2014-3-4,24.7,16.2,2.1,17.0,6.0,-6.0,84,65,41,30.36,30.23,16,4,19,0.00
2014-3-5,21.1,16.3,10.3,12.0,6.5,-2.0,87,67,49,30.50,30.27,9,3,12,0.00
2014-3-6,29.6,17.5,5.4,11.0,-2.5,-12.0,83,46,17,30.62,30.50,6,1,9,0.00
2014-3-7,33.2,23.0,8.0,26.0,17.9,6.0,93,82,60,30.50,29.97,15,3,17,0.00
2014-3-8,46.7,32.8,19.1,32.0,23.7,17.0,95,72,46,29.96,29.65,6,2,11,0.00
2014-3-9,35.8,28.8,22.3,17.0,10.8,2.0,70,49,31,29.91,29.81,6,2,9,0.00
2014-3-10,32.7,27.4,22.3,27.0,18.6,4.0,85,71,39,29.87,29.66,13,3,13,0.00
2014-3-11,48.5,38.7,32.3,40.0,33.1,27.0,97,82,60,29.70,29.49,11,3,16,0.09
2014-3-12,41.3,34.8,27.8,35.0,31.9,26.0,96,89,74,29.73,29.10,17,3,20,1.19
2014-3-13,27.4,18.2,12.7,26.0,14.0,6.0,94,83,72,29.79,29.02,12,5,20,0.00
2014-3-14,36.2,23.4,10.3,30.0,12.8,1.0,80,65,39,30.10,29.79,21,8,27,0.00
2014-3-15,41.7,37.7,30.6,38.0,34.9,29.0,95,89,80,29.88,29.61,16,8,22,0.08
2014-3-16,35.1,25.9,14.1,32.0,10.3,-3.0,96,53,35,30.20,29.73,10,2,16,0.00
2014-3-17,24.9,16.8,9.2,3.0,-1.8,-5.0,56,45,31,30.21,30.02,6,2,11,0.00
2014-3-18,33.9,22.4,9.6,22.0,8.6,0.0,82,57,29,30.37,30.17,11,2,16,0.00
2014-3-19,36.2,29.3,17.7,27.0,20.9,13.0,93,73,43,30.41,30.10,10,3,14,0.00
2014-3-20,44.3,38.4,30.2,43.0,36.5,25.0,97,93,69,30.08,29.49,9,2,18,1.21
2014-3-21,42.4,36.1,30.7,32.0,25.0,21.0,94,65,48,29.94,29.62,7,2,15,0.00
2014-3-22,37.7,33.0,25.8,36.0,26.4,19.0,94,77,58,29.99,29.63,14,3,20,0.03
2014-3-23,39.1,29.9,15.2,29.0,16.5,1.0,91,60,32,30.07,29.86,10,2,18,0.00
2014-3-24,26.5,18.6,10.5,5.0,0.6,-3.0,61,46,34,30.12,29.98,9,3,12,0.00
2014-3-25,32.7,23.2,10.0,24.0,13.8,4.0,90,69,44,30.13,30.03,16,4,23,0.00
2014-3-26,33.3,28.4,24.6,20.0,15.8,10.0,79,61,39,30.03,29.45,20,7,27,0.00
2014-3-27,36.8,27.5,16.3,31.0,8.3,-2.0,78,46,28,30.23,29.77,12,3,14,0.00
2014-3-28,41.7,38.3,34.5,41.0,34.8,29.0,97,87,73,30.20,29.91,15,9,22,0.02
2014-3-29,51.9,42.5,33.9,42.0,37.0,33.0,98,82,55,30.26,29.95,9,2,14,0.07
2014-3-30,38.3,35.7,33.2,37.0,34.8,32.0,97,96,93,30.15,29.72,16,8,21,1.38
2014-3-31,36.8,34.2,32.3,32.0,30.1,28.0,94,85,78,29.98,29.71,13,8,22,0.00
2014-4-1,48.9,38.5,29.4,29.0,23.3,9.0,78,58,22,30.09,29.97,15,6,25,0.00
2014-4-2,40.3,32.1,26.1,28.0,22.9,13.0,93,71,41,30.13,30.05,11,3,14,0.00
2014-4-3,46.7,37.4,25.5,35.0,27.0,23.0,96,70,42,30.14,30.03,6,1,10,0.00
2014-4-4,43.7,36.3,27.9,36.0,26.8,22.0,94,70,44,30.18,30.00,14,4,16,0.12
2014-4-5,48.9,41.4,36.2,45.0,38.4,29.0,97,89,69,30.00,29.59,11,2,18,0.33
2014-4-6,51.1,41.7,30.6,28.0,24.4,19.0,79,53,29,30.13,29.80,9,2,15,0.00
2014-4-7,47.7,38.6,27.7,38.0,32.0,24.0,92,78,52,30.23,30.05,14,3,17,0.00
2014-4-8,47.2,43.6,40.5,47.0,42.8,37.0,99,97,83,30.03,29.29,13,4,18,1.08
2014-4-9,52.6,42.9,33.1,45.0,30.9,17.0,99,67,30,29.88,29.36,8,2,13,0.00
2014-4-10,43.8,37.8,26.1,37.0,29.6,19.0,84,73,58,30.10,29.89,26,10,34,0.00
2014-4-11,55.4,46.5,41.7,45.0,41.3,37.0,91,82,66,29.98,29.88,19,7,27,0.05
2014-4-12,62.9,48.9,39.3,42.0,37.2,29.0,93,68,30,30.22,29.95,18,3,23,0.00
2014-4-13,45.2,41.8,38.4,44.0,37.3,30.0,95,84,60,30.34,30.02,9,3,19,0.19
2014-4-14,51.3,45.5,40.8,49.0,44.2,40.0,98,95,90,30.00,29.84,17,7,21,0.00
2014-4-15,51.8,48.3,45.3,50.0,47.4,44.0,99,96,93,29.89,29.57,30,13,32,0.27
2014-4-16,47.1,34.4,28.1,46.0,23.9,13.0,97,69,39,30.63,29.61,11,3,16,0.29
2014-4-17,41.7,32.2,23.9,26.0,19.9,15.0,90,62,40,30.84,30.64,13,3,13,0.00
2014-4-18,41.9,34.7,26.2,32.0,29.3,25.0,94,81,63,30.69,30.24,11,3,16,0.00
2014-4-19,57.4,43.1,31.4,39.0,32.4,26.0,95,69,39,30.38,30.12,8,2,13,0.00
2014-4-20,50.8,40.0,31.7,37.0,30.3,21.0,90,70,31,30.51,30.33,18,6,21,0.00
2014-4-21,45.2,43.1,39.8,42.0,39.6,37.0,94,87,74,30.32,29.81,20,9,24,0.00
2014-4-22,51.4,45.4,37.8,46.0,42.7,37.0,97,90,80,29.80,29.45,11,3,14,0.00
2014-4-23,59.7,49.5,44.5,53.0,43.7,36.0,97,82,65,29.46,29.36,16,3,16,0.10
2014-4-24,50.8,45.7,42.7,37.0,34.6,32.0,76,66,54,29.84,29.44,17,7,25,0.00
2014-4-25,59.1,45.5,36.7,38.0,34.8,27.0,93,69,30,29.94,29.84,14,4,20,0.00
2014-4-26,46.1,41.0,36.6,41.0,38.6,35.0,96,91,73,29.89,29.83,6,1,13,0.36
2014-4-27,50.6,44.1,39.3,43.0,40.3,37.0,97,87,69,29.96,29.86,7,2,13,0.05
2014-4-28,50.1,46.4,42.7,42.0,38.9,36.0,80,75,69,30.30,29.96,14,5,19,0.00
2014-4-29,50.8,43.2,39.1,38.0,35.4,33.0,83,74,56,30.56,30.30,12,5,20,0.00
2014-4-30,41.7,40.1,38.3,39.0,36.7,34.0,95,87,83,30.59,30.29,9,3,13,0.04
2014-5-1,50.8,44.9,39.5,50.0,44.1,38.0,98,97,95,30.28,29.66,13,3,17,0.99
2014-5-2,63.4,49.9,43.7,52.0,45.8,41.0,99,87,44,29.76,29.59,15,3,20,0.02
2014-5-3,58.0,47.9,39.7,47.0,42.9,38.0,97,84,52,29.82,29.72,13,4,18,0.00
2014-5-4,56.0,47.1,43.5,49.0,44.6,42.0,95,91,72,29.72,29.45,13,2,17,0.30
2014-5-5,60.2,51.7,45.2,46.0,42.5,39.0,91,73,48,29.77,29.52,10,3,14,0.00
2014-5-6,58.6,50.7,41.4,46.0,41.6,39.0,92,72,54,29.96,29.76,13,1,15,0.00
2014-5-7,61.8,50.0,41.6,42.0,39.7,37.0,86,69,40,30.15,29.97,19,5,23,0.00
2014-5-8,66.4,49.6,35.9,43.0,38.7,31.0,95,70,27,30.21,30.08,18,3,20,0.00
2014-5-9,57.2,47.8,36.8,45.0,38.8,28.0,91,73,33,30.26,30.10,10,3,12,0.01
2014-5-10,63.5,51.4,48.5,58.0,49.8,45.0,99,94,80,30.09,29.67,14,6,17,0.35
2014-5-11,74.8,64.1,50.6,57.0,46.1,35.0,93,56,25,29.96,29.67,10,1,15,0.00
2014-5-12,57.3,51.2,45.7,49.0,45.4,41.0,89,81,70,30.17,29.95,13,4,17,0.00
2014-5-13,54.4,46.2,39.3,43.0,40.1,37.0,93,79,62,30.33,30.18,13,4,19,0.00
2014-5-14,50.5,46.2,38.7,47.0,43.4,37.0,95,90,83,30.36,30.30,14,5,19,0.00
2014-5-15,56.0,50.8,44.0,53.0,49.2,43.0,98,94,88,30.32,30.24,14,5,17,0.00
2014-5-16,61.9,56.8,52.1,56.0,53.3,51.0,95,88,78,30.26,30.09,13,8,23,0.00
2014-5-17,55.8,52.8,48.5,54.0,51.9,48.0,99,96,91,30.09,29.92,18,7,23,0.69
2014-5-18,61.4,54.7,49.2,55.0,51.2,49.0,99,89,72,30.06,29.99,8,2,11,0.04
2014-5-19,55.0,52.3,49.9,52.0,49.9,48.0,96,91,83,29.99,29.92,9,3,14,0.30
2014-5-20,64.7,56.3,50.7,54.0,51.6,49.0,95,85,65,29.96,29.90,8,2,13,0.07
2014-5-21,60.9,53.7,48.1,54.0,51.2,48.0,98,91,78,29.98,29.94,11,3,13,0.00
2014-5-22,55.4,50.8,47.1,52.0,49.5,47.0,98,95,87,29.97,29.88,14,3,15,0.00
2014-5-23,57.2,51.7,47.8,51.0,48.6,47.0,97,90,77,29.99,29.89,8,2,12,0.00
2014-5-24,56.7,50.8,47.0,49.0,47.1,45.0,96,87,71,30.05,29.97,10,2,13,0.00
2014-5-25,54.2,50.9,46.9,51.0,48.1,45.0,95,90,81,30.08,29.97,17,6,21,0.00
2014-5-26,74.8,61.8,51.5,62.0,56.2,50.0,96,83,58,29.97,29.69,10,3,12,0.02
2014-5-27,60.2,49.3,45.1,59.0,48.5,44.0,97,96,94,30.03,29.76,6,1,11,0.79
2014-5-28,53.3,46.7,42.1,46.0,44.3,41.0,97,91,74,30.19,29.99,9,2,12,0.14
2014-5-29,54.9,47.9,37.1,48.0,43.4,36.0,98,85,67,30.23,30.13,12,4,16,0.00
2014-5-30,53.3,48.7,40.6,51.0,46.6,40.0,99,92,85,30.13,30.03,13,4,17,0.00
2014-5-31,63.6,53.5,45.0,49.0,42.8,30.0,97,71,32,30.25,30.09,11,2,18,0.00
2014-6-1,62.7,53.8,43.9,51.0,47.2,42.0,94,79,57,30.32,30.20,11,4,14,0.00
2014-6-2,61.0,55.4,47.7,54.0,51.1,45.0,94,85,76,30.21,30.01,10,3,13,0.00
2014-6-3,62.9,56.2,50.3,55.0,50.4,42.0,95,81,51,30.05,29.95,9,3,15,0.00
2014-6-4,54.3,52.1,50.6,53.0,51.2,50.0,98,97,95,29.95,29.80,4,1,6,0.27
2014-6-5,58.2,55.7,52.5,58.0,55.2,52.0,99,98,97,29.80,29.61,5,1,9,0.52
2014-6-6,74.5,61.3,54.5,61.0,57.1,54.0,98,87,53,29.66,29.59,6,0,11,0.00
2014-6-8,77.9,65.3,57.7,62.0,59.0,56.0,97,81,56,29.90,29.83,10,3,13,0.00
2014-6-9,70.6,62.6,54.9,63.0,58.5,54.0,97,87,71,29.91,29.84,13,2,16,0.00
2014-6-10,69.7,61.7,56.5,64.0,57.6,53.0,95,87,69,30.10,29.90,10,2,15,0.00
2014-6-11,63.9,58.3,48.9,56.0,53.0,48.0,97,83,65,30.18,30.09,10,3,16,0.00
2014-6-12,61.3,58.0,55.0,56.0,53.2,48.0,96,84,62,30.22,30.14,8,2,15,0.14
2014-6-13,58.5,55.9,53.7,56.0,53.3,51.0,98,91,82,30.14,29.81,13,5,17,2.18
2014-6-14,69.0,59.9,55.0,65.0,58.2,55.0,99,94,81,29.82,29.77,4,1,7,0.02
2014-6-15,74.5,65.4,57.4,61.0,56.3,50.0,97,75,48,29.98,29.82,8,2,14,0.24
2014-6-16,75.4,63.1,52.4,54.0,50.0,46.0,90,65,38,30.09,29.98,7,2,10,0.00
2014-6-17,63.4,58.8,54.6,59.0,55.7,51.0,94,89,83,30.05,29.92,9,4,12,0.00
2014-6-18,78.8,72.0,63.2,64.0,62.4,60.0,98,73,59,29.82,29.60,5,1,8,0.31
2014-6-19,78.7,69.7,58.3,61.0,53.3,42.0,90,59,29,29.93,29.82,6,1,11,0.00
2014-6-20,67.0,59.3,50.5,51.0,46.0,42.0,91,64,42,29.91,29.84,10,1,12,0.00
2014-6-21,71.3,59.0,49.2,55.0,50.7,46.0,91,75,48,29.90,29.82,14,2,16,0.00
2014-6-22,67.2,57.8,48.6,56.0,52.2,47.0,96,82,62,30.02,29.88,9,2,12,0.00
2014-6-23,65.5,58.1,48.5,57.0,53.2,48.0,97,84,64,30.14,30.03,14,4,20,0.00
2014-6-24,62.9,60.5,57.0,58.0,56.6,55.0,93,87,79,30.14,29.95,19,9,21,0.00
2014-6-25,69.3,63.0,60.3,66.0,60.1,58.0,96,90,84,29.95,29.88,12,3,17,0.15
2014-6-26,61.8,59.6,57.2,61.0,57.5,54.0,98,93,83,29.96,29.79,9,4,13,2.02
2014-6-27,78.0,63.6,52.5,57.0,52.1,47.0,94,70,37,30.17,29.97,10,2,15,0.00
2014-6-28,72.4,62.0,50.2,61.0,55.4,49.0,96,80,57,30.23,30.16,14,2,16,0.00
2014-6-29,72.3,64.1,53.8,62.0,57.1,52.0,95,79,57,30.21,30.05,12,3,17,0.00
2014-6-30,69.9,64.6,57.6,64.0,60.9,56.0,96,88,81,30.05,29.84,11,3,14,0.00
2014-7-1,69.8,66.1,61.8,67.0,63.6,60.0,96,91,84,29.85,29.75,15,5,18,0.00
2014-7-2,72.4,67.4,63.9,71.0,65.4,62.0,98,93,88,29.94,29.74,16,6,21,0.12
2014-7-3,71.2,66.2,62.4,71.0,65.5,62.0,99,97,93,29.97,29.88,9,3,13,0.05
2014-7-4,72.7,65.8,62.7,70.0,65.0,62.0,99,97,89,29.98,29.77,7,2,15,1.84
2014-7-5,70.4,62.1,55.4,63.0,57.2,51.0,98,85,53,29.81,29.59,11,2,15,1.62
2014-7-6,75.1,67.7,60.1,61.0,58.6,57.0,90,73,55,29.86,29.76,14,3,21,0.00
2014-7-7,67.1,63.2,57.7,64.0,60.6,56.0,96,91,84,29.79,29.66,18,5,23,0.02
2014-7-8,72.8,66.4,62.0,68.0,64.4,62.0,98,93,85,29.74,29.65,17,6,19,0.00
2014-7-9,71.8,66.4,61.6,66.0,63.7,61.0,99,91,83,29.88,29.61,16,7,20,0.00
2014-7-10,77.4,67.2,60.4,67.0,62.8,59.0,97,86,61,30.13,29.86,10,1,14,0.00
2014-7-11,73.7,63.1,55.1,60.0,56.7,54.0,96,81,52,30.21,30.13,13,3,17,0.00
2014-7-12,70.9,62.7,52.5,64.0,59.2,51.0,96,88,70,30.20,30.10,15,4,17,0.00
2014-7-13,67.7,64.7,60.6,64.0,62.2,59.0,98,91,85,30.10,29.87,18,7,19,0.00
2014-7-14,69.1,66.0,62.6,68.0,64.7,62.0,99,95,88,29.87,29.81,12,4,15,0.00
2014-7-15,67.9,65.8,64.5,68.0,65.6,64.0,100,99,97,29.85,29.75,10,5,14,0.41
2014-7-16,67.4,64.8,62.4,67.0,64.8,62.0,100,100,99,29.80,29.75,9,4,15,1.69
2014-7-17,76.2,66.2,59.9,68.0,63.1,58.0,100,91,60,30.01,29.80,8,1,11,0.00
2014-7-18,78.2,65.2,54.8,63.0,58.8,54.0,98,81,54,30.21,30.02,10,1,15,0.00
2014-7-19,79.0,64.7,55.0,65.0,59.9,54.0,97,85,57,30.26,30.20,6,1,11,0.00
2014-7-20,70.0,64.5,57.4,66.0,61.3,56.0,98,90,73,30.22,30.16,3,0,5,0.00
2014-7-21,68.6,61.6,53.9,65.0,59.2,53.0,98,92,80,30.19,30.13,7,2,10,0.00
2014-7-22,70.5,64.4,56.7,66.0,62.6,56.0,99,93,85,30.13,29.91,12,3,16,0.00
2014-7-23,73.8,69.1,63.0,70.0,67.0,63.0,98,93,86,29.91,29.69,15,4,19,0.00
2014-7-24,72.8,66.3,58.7,69.0,63.1,58.0,98,90,72,29.86,29.70,5,2,9,0.19
2014-7-25,79.5,66.1,54.5,64.0,59.6,53.0,97,81,51,29.91,29.84,9,1,12,0.00
2014-7-26,69.7,64.4,57.0,66.0,62.0,56.0,98,92,81,29.92,29.83,16,4,18,0.00
2014-7-27,68.2,64.1,57.8,66.0,62.9,57.0,98,96,91,29.84,29.67,13,4,21,0.24
2014-7-28,69.3,66.3,63.3,68.0,65.8,63.0,99,98,94,29.67,29.45,12,4,18,0.84
2014-7-29,74.4,66.4,60.7,64.0,62.4,59.0,99,88,64,29.92,29.47,11,2,14,0.00
2014-7-30,69.7,62.9,57.1,65.0,61.4,56.0,98,95,85,30.03,29.92,6,1,10,0.09
2014-7-31,69.8,64.0,59.2,65.0,62.3,59.0,99,94,83,30.13,30.03,8,2,13,0.00
2014-8-1,69.2,66.2,60.1,67.0,64.5,59.0,98,94,87,30.21,30.12,10,3,12,0.00
2014-8-2,71.4,65.9,60.2,68.0,64.1,59.0,98,94,85,30.22,30.13,10,2,13,0.00
2014-8-3,67.6,62.7,56.3,64.0,60.5,56.0,98,92,85,30.13,30.03,11,3,13,0.00
2014-8-4,68.8,64.1,57.6,66.0,62.4,57.0,98,94,84,30.03,29.97,11,2,13,0.00
2014-8-5,74.1,66.1,59.3,68.0,64.5,59.0,98,94,74,29.98,29.86,10,1,10,0.00
2014-8-6,77.0,67.7,64.1,68.0,65.6,63.0,98,93,74,29.85,29.73,9,1,11,0.01
2014-8-7,74.1,66.4,59.4,64.0,60.9,58.0,96,83,65,29.87,29.77,5,1,8,0.00
2014-8-8,65.4,61.1,59.2,61.0,58.4,57.0,93,91,82,29.92,29.86,2,0,4,0.00
2014-8-9,79.1,69.5,59.9,65.0,62.5,59.0,95,79,56,30.04,29.98,7,1,8,0.00
2014-8-10,76.4,64.9,56.3,63.0,60.1,56.0,97,85,55,30.11,30.04,8,2,10,0.00
2014-8-11,69.9,63.6,57.0,66.0,61.5,56.0,98,93,84,30.13,30.09,8,2,11,0.00
2014-8-12,71.0,64.8,61.7,66.0,63.3,61.0,99,94,82,30.14,30.08,8,2,12,0.00
2014-8-13,62.8,61.5,60.3,62.0,60.9,60.0,99,98,95,30.09,29.76,11,3,18,0.02
2014-8-14,66.9,64.0,61.4,66.0,62.0,60.0,100,93,84,29.81,29.60,15,4,21,0.39
2014-8-15,67.4,62.1,54.3,62.0,59.1,54.0,98,90,68,29.86,29.81,5,1,9,0.00
2014-8-16,67.6,62.2,54.2,62.0,58.8,53.0,98,89,77,29.91,29.84,18,4,20,0.00
2014-8-17,69.1,63.8,58.8,63.0,61.5,58.0,97,92,80,29.74,29.72,4,0,6,0.16
2014-8-18,72.5,64.1,57.4,61.0,58.1,53.0,98,82,63,29.82,29.70,5,0,8,0.00
2014-8-19,71.8,61.4,53.3,61.0,56.3,52.0,95,84,68,29.93,29.81,11,2,14,0.00
2014-8-20,66.8,58.0,53.3,62.0,56.5,53.0,98,94,83,30.05,29.94,3,0,6,0.00
2014-8-21,70.8,62.2,54.7,63.0,59.3,54.0,98,90,71,30.11,30.04,4,1,8,0.00
2014-8-22,71.3,64.1,57.1,62.0,59.7,56.0,96,86,69,30.13,30.09,9,2,13,0.00
2014-8-23,71.4,63.1,55.9,61.0,58.6,55.0,97,86,60,30.12,30.09,9,2,11,0.00
2014-8-24,80.2,65.2,54.5,67.0,60.8,54.0,98,86,57,30.11,30.03,4,1,9,0.00
2014-8-25,80.9,67.8,59.9,68.0,63.5,59.0,98,87,65,30.11,30.04,9,2,13,0.00
2014-8-26,69.1,66.1,60.4,67.0,64.0,60.0,99,93,86,30.13,29.97,13,5,20,0.00
2014-8-27,74.4,68.6,62.7,69.0,65.7,62.0,97,90,82,29.96,29.79,10,3,15,0.00
2014-8-28,76.8,69.3,60.9,67.0,58.7,52.0,92,70,48,29.91,29.72,10,2,10,0.00
2014-8-29,69.4,60.5,51.7,55.0,52.4,49.0,94,76,49,30.25,29.91,11,3,14,0.00
2014-8-30,64.4,59.6,50.3,62.0,57.0,49.0,98,91,81,30.28,30.08,17,7,24,0.00
2014-8-31,70.7,66.4,62.7,67.0,64.4,61.0,99,93,88,30.08,29.90,13,5,18,0.35
2014-9-1,71.2,67.3,64.3,70.0,66.4,64.0,99,96,89,29.93,29.88,8,2,10,0.01
2014-9-2,73.1,66.6,62.3,71.0,66.0,62.0,99,98,89,29.91,29.70,7,1,9,0.00
2014-9-3,82.5,72.2,62.0,69.0,63.5,58.0,100,76,49,30.02,29.62,5,0,7,0.00
2014-9-4,72.8,64.5,55.7,63.0,59.4,55.0,97,84,65,30.14,30.02,10,2,14,0.00
2014-9-5,74.0,66.1,58.0,68.0,63.2,57.0,97,91,76,30.10,29.89,12,3,15,0.00
2014-9-6,73.6,69.3,63.9,70.0,67.6,63.0,98,94,88,29.89,29.67,12,6,17,0.16
2014-9-7,72.9,64.2,55.6,63.0,56.3,50.0,98,78,45,30.19,29.85,6,1,10,0.03
2014-9-8,68.6,57.8,49.3,54.0,49.6,39.0,97,77,38,30.40,30.19,9,2,14,0.00
2014-9-9,64.9,55.8,45.3,55.0,50.8,45.0,98,84,62,30.41,30.22,9,2,13,0.00
2014-9-10,66.1,57.3,50.0,60.0,55.5,49.0,99,93,77,30.22,30.04,8,2,11,0.00
2014-9-11,65.6,61.1,55.2,64.0,60.0,55.0,99,96,85,30.03,29.73,15,5,19,0.08
2014-9-12,64.5,59.2,52.2,60.0,50.5,47.0,91,74,56,30.24,29.81,7,2,10,0.00
2014-9-13,60.9,54.6,45.9,57.0,49.6,44.0,96,84,67,30.31,30.07,7,1,10,0.04
2014-9-14,61.5,55.7,46.5,57.0,49.1,43.0,97,80,59,30.20,30.05,7,1,10,0.00
2014-9-15,61.5,52.4,42.0,53.0,45.6,41.0,97,80,51,30.22,30.08,8,1,12,0.00
2014-9-16,59.4,55.6,50.2,56.0,53.5,49.0,96,92,86,30.08,29.93,6,1,8,0.07
2014-9-17,65.1,55.5,48.3,57.0,52.2,48.0,98,89,60,29.99,29.92,10,2,12,0.00
2014-9-18,69.2,56.4,47.0,58.0,48.3,38.0,98,77,53,30.14,29.88,6,1,8,0.00
2014-9-19,55.9,48.1,39.8,41.0,35.9,28.0,89,65,36,30.41,30.15,12,3,17,0.00
2014-9-20,60.9,55.5,43.7,57.0,49.6,37.0,92,81,55,30.38,30.05,19,10,25,0.00
2014-9-21,66.3,62.5,59.0,65.0,61.3,57.0,99,95,86,30.04,29.53,14,4,18,0.17
2014-9-22,71.2,61.5,49.7,64.0,54.6,41.0,99,80,51,30.00,29.45,7,1,11,0.03
2014-9-23,65.1,54.4,45.3,54.0,46.9,41.0,95,77,53,30.38,30.00,14,1,19,0.00
2014-9-24,60.7,52.3,45.1,51.0,46.9,40.0,97,83,53,30.64,30.39,10,2,14,0.00
2014-9-25,59.9,50.7,42.4,55.0,47.8,42.0,99,90,74,30.56,30.25,12,2,13,0.00
2014-9-26,65.6,54.0,43.9,59.0,51.3,43.0,98,91,79,30.24,30.11,9,1,12,0.00
2014-9-27,79.7,63.1,51.2,63.0,57.3,50.0,98,83,52,30.13,30.08,2,0,7,0.00
2014-9-28,66.4,59.8,52.3,62.0,57.7,52.0,98,93,85,30.12,29.92,11,2,13,0.00
2014-9-29,72.4,58.0,52.5,63.0,55.6,51.0,98,92,70,30.05,29.91,12,2,12,0.00
2014-9-30,57.3,54.0,51.2,55.0,52.6,50.0,97,95,90,30.06,30.00,8,2,10,0.00
2014-10-1,61.0,57.8,55.3,56.0,54.8,53.0,94,89,83,30.16,30.03,11,4,14,0.00
2014-10-2,63.2,55.7,46.8,53.0,49.5,46.0,95,81,55,30.20,30.12,10,3,12,0.00
2014-10-3,63.3,53.2,45.7,55.0,49.4,44.0,96,87,71,30.14,29.91,7,2,10,0.00
2014-10-4,61.2,57.4,54.5,61.0,56.8,53.0,99,97,94,29.91,29.58,11,2,17,0.05
2014-10-5,64.8,58.0,44.8,61.0,53.8,44.0,99,87,58,29.89,29.50,12,2,17,0.52
2014-10-6,60.3,50.8,40.7,51.0,46.1,40.0,97,85,56,30.18,29.89,17,4,19,0.00
2014-10-7,62.3,59.5,49.2,59.0,55.9,48.0,97,88,80,30.18,30.00,21,8,28,0.00
2014-10-8,64.5,60.9,57.2,62.0,58.0,50.0,97,90,73,30.00,29.62,21,8,30,0.11
2014-10-9,60.4,55.6,49.4,51.0,42.7,37.0,79,63,45,29.90,29.75,12,2,21,0.00
2014-10-10,58.8,50.0,39.0,47.0,42.4,38.0,95,77,47,30.10,29.90,15,2,16,0.00
2014-10-11,53.2,45.6,41.3,46.0,43.0,40.0,97,91,70,30.13,30.04,2,0,3,0.00
2014-10-12,59.5,48.0,39.7,44.0,40.6,38.0,97,78,47,30.28,30.09,4,0,7,0.00
2014-10-13,58.3,50.7,38.5,55.0,47.4,38.0,97,89,67,30.33,30.21,18,7,21,0.00
2014-10-14,63.2,59.6,56.3,61.0,57.4,55.0,95,92,88,30.22,30.12,17,9,23,0.00
2014-10-15,63.3,61.5,58.8,62.0,60.4,58.0,99,96,92,30.12,30.02,15,7,19,0.00
2014-10-16,67.0,63.7,61.6,67.0,62.9,61.0,99,97,93,30.01,29.73,15,5,22,0.80
2014-10-17,64.7,60.5,58.5,64.0,59.2,57.0,99,95,90,29.73,29.55,18,8,21,0.45
2014-10-18,60.0,57.7,53.2,59.0,56.9,53.0,99,97,90,29.63,29.46,17,5,17,0.22
2014-10-19,52.9,48.0,43.6,52.0,40.1,32.0,98,76,57,29.83,29.49,7,2,11,0.01
2014-10-20,51.1,44.8,40.1,41.0,34.7,29.0,94,69,49,29.99,29.84,13,2,19,0.00
2014-10-21,55.8,50.2,41.0,54.0,48.4,39.0,97,93,82,30.08,30.00,11,2,16,0.70
2014-10-22,52.1,49.8,48.2,51.0,48.2,47.0,96,94,90,30.12,29.99,21,10,26,0.22
2014-10-23,52.4,50.8,48.6,52.0,49.9,47.0,98,96,92,29.98,29.67,19,10,25,2.03
2014-10-24,50.3,47.8,46.0,48.0,46.3,45.0,97,95,87,29.68,29.61,11,4,13,0.06
2014-10-25,60.3,50.7,43.4,52.0,45.9,42.0,96,84,53,29.68,29.43,12,2,18,0.00
2014-10-26,59.4,50.8,42.6,50.0,45.1,40.0,98,82,61,29.57,29.36,5,1,9,0.00
2014-10-27,55.7,49.4,43.2,43.0,41.0,39.0,86,74,59,29.96,29.57,5,1,14,0.00
2014-10-28,54.5,49.6,46.3,52.0,44.8,41.0,93,83,72,30.09,29.95,6,1,8,0.00
2014-10-29,56.1,54.1,51.4,55.0,53.4,51.0,99,97,93,29.94,29.74,10,4,12,0.15
2014-10-30,55.9,48.5,39.8,50.0,43.1,37.0,98,82,66,29.98,29.79,4,0,6,0.00
2014-10-31,51.4,42.9,33.2,39.0,34.8,32.0,97,75,49,30.07,29.97,7,1,8,0.00
2014-11-1,45.2,41.9,37.0,42.0,38.9,36.0,94,89,77,30.00,29.81,15,7,19,0.24
2014-11-2,37.2,35.1,32.8,35.0,33.6,32.0,97,94,89,29.85,29.51,16,10,20,0.23
2014-11-5,57.8,45.2,35.8,45.0,40.0,35.0,95,83,59,30.08,29.92,0,0,6,0.00
2014-11-6,49.3,42.2,34.0,46.0,40.5,33.0,97,94,82,30.08,29.54,8,1,12,0.25
2014-11-7,46.9,42.1,37.8,46.0,38.6,31.0,97,87,70,29.62,29.35,10,3,17,0.04
2014-11-8,44.4,37.0,31.8,32.0,26.6,22.0,89,68,43,29.91,29.64,7,1,9,0.00
2014-11-9,50.0,42.5,33.7,43.0,37.7,32.0,97,83,69,29.99,29.84,13,3,16,0.00
2014-11-10,51.4,39.8,30.5,45.0,37.0,30.0,97,90,70,30.22,29.99,13,2,17,0.00
2014-11-11,53.9,46.9,34.0,52.0,44.9,33.0,99,93,82,30.20,29.99,18,4,23,0.01
2014-11-12,55.0,51.8,43.3,55.0,50.5,38.0,99,95,69,29.99,29.83,7,1,13,0.00
2014-11-13,47.9,41.1,32.4,38.0,33.6,30.0,95,76,51,30.05,29.94,9,1,10,0.01
2014-11-14,38.8,33.8,29.4,35.0,29.8,22.0,97,86,65,30.03,29.84,5,1,7,0.15
2014-11-15,36.0,30.8,27.0,22.0,19.8,16.0,79,64,48,30.29,30.04,4,0,8,0.00
2014-11-16,42.6,34.6,24.1,34.0,26.8,19.0,94,74,55,30.34,30.10,15,2,18,0.00
2014-11-17,41.0,37.6,33.6,39.0,34.1,28.0,97,88,61,30.10,29.38,6,1,10,0.63
2014-11-18,42.6,35.3,26.7,39.0,25.8,12.0,98,71,44,29.77,29.36,15,2,18,0.00
2014-11-19,37.3,29.7,25.3,23.0,16.4,12.0,77,59,38,30.08,29.77,10,2,22,0.00
2014-11-20,41.7,35.0,30.2,29.0,22.2,15.0,77,60,49,30.02,29.72,20,4,26,0.00
2014-11-21,32.5,27.8,22.4,18.0,12.5,7.0,62,53,41,30.31,29.82,8,2,15,0.00
2014-11-22,43.0,31.6,21.1,26.0,18.9,9.0,73,60,46,30.34,29.94,18,6,23,0.00
2014-11-23,50.5,42.1,34.1,44.0,35.7,25.0,97,79,54,30.15,29.95,9,2,14,0.00
2014-11-24,56.1,51.4,38.2,56.0,50.8,38.0,99,97,95,30.11,29.55,28,11,35,0.60
2014-11-25,58.7,52.9,43.1,55.0,45.4,32.0,96,77,50,30.06,29.59,16,5,21,0.00
2014-11-26,41.3,36.8,32.5,35.0,32.5,28.0,97,85,62,30.23,29.98,10,2,10,0.00
2014-11-27,32.3,30.4,28.6,31.0,29.4,28.0,97,96,89,29.88,29.64,6,3,10,0.01
2014-11-28,25.3,22.9,20.0,23.0,19.4,17.0,90,86,84,30.15,30.09,1,0,4,0.00
2014-11-29,30.0,22.8,17.3,21.0,18.1,14.0,94,83,62,30.32,30.15,4,0,5,0.00
2014-11-30,50.4,44.7,20.2,47.0,41.7,19.0,95,89,82,30.27,29.94,25,14,30,0.31
2014-12-1,60.8,46.9,32.3,51.0,39.2,16.0,88,75,49,30.44,29.92,15,6,23,0.00
2014-12-2,31.9,26.9,23.5,24.0,15.2,6.0,87,62,42,30.78,30.46,10,4,14,0.00
2014-12-3,41.2,33.3,25.7,40.0,32.2,23.0,99,96,87,30.50,29.79,9,2,17,0.20
2014-12-4,38.1,31.9,20.7,34.0,21.3,9.0,93,67,39,30.57,29.93,7,2,11,0.00
2014-12-5,36.2,24.7,15.1,30.0,17.2,7.0,84,73,56,30.76,30.52,10,3,12,0.00
2014-12-6,39.9,35.6,33.7,39.0,34.8,31.0,98,96,84,30.52,30.05,7,1,11,1.05
2014-12-7,35.9,25.5,11.5,35.0,14.1,4.0,96,64,41,30.76,30.23,17,7,21,0.00
2014-12-8,21.7,15.7,8.4,16.0,6.3,0.0,79,66,51,30.83,30.61,13,4,13,0.00
2014-12-9,42.0,35.9,21.9,41.0,34.7,17.0,98,95,81,30.59,29.71,17,7,26,1.88
2014-12-10,40.4,38.6,37.8,40.0,37.8,37.0,98,97,95,29.70,29.39,14,6,23,0.29
2014-12-11,43.0,39.8,36.2,42.0,37.2,34.0,99,90,80,29.74,29.45,20,9,25,0.11
2014-12-12,37.1,34.8,31.5,36.0,33.6,30.0,97,95,92,29.83,29.75,9,0,9,0.06
2014-12-13,35.1,33.4,30.8,34.0,31.8,29.0,96,94,91,29.77,29.71,1,0,7,0.00
2014-12-14,39.5,34.3,29.6,34.0,31.2,28.0,95,88,79,29.86,29.73,5,1,8,0.00
2014-12-15,35.8,31.6,28.8,29.0,28.1,27.0,96,87,76,30.18,29.86,9,2,11,0.00
2014-12-16,38.0,34.5,29.6,37.0,32.6,27.0,98,92,87,30.19,30.00,5,1,7,0.02
2014-12-17,44.7,40.6,34.9,44.0,40.1,34.0,98,98,97,29.99,29.61,12,4,17,1.28
2014-12-18,36.5,34.4,31.7,36.0,32.6,27.0,98,93,83,29.77,29.60,4,0,10,0.10
2014-12-19,34.4,30.4,26.7,27.0,25.1,22.0,89,80,70,30.14,29.77,9,2,12,0.00
2014-12-20,30.1,25.4,22.4,24.0,20.9,19.0,90,83,74,30.37,30.14,10,4,11,0.00
2014-12-21,34.7,28.6,23.0,29.0,25.6,21.0,95,88,77,30.38,30.31,6,1,9,0.00
2014-12-22,37.6,32.8,28.6,36.0,31.2,27.0,97,93,86,30.43,30.36,4,1,6,0.09
2014-12-23,39.5,37.3,33.7,39.0,36.5,33.0,98,97,90,30.39,30.23,9,2,13,0.17
2014-12-24,52.1,42.2,37.3,52.0,41.9,37.0,99,99,98,30.23,29.57,8,2,12,0.85
2014-12-25,53.5,48.0,41.9,53.0,44.2,31.0,99,87,66,29.80,29.41,18,5,25,0.33
2014-12-26,49.7,40.9,29.4,34.0,30.8,28.0,94,69,46,30.07,29.81,10,2,13,0.00
2014-12-27,49.9,36.4,28.6,40.0,32.5,28.0,97,87,55,30.15,29.95,9,1,12,0.00
2014-12-28,45.9,42.2,33.5,44.0,38.8,27.0,98,88,69,29.94,29.65,18,5,21,0.58
2014-12-29,39.4,32.2,23.2,27.0,16.6,6.0,78,54,32,30.18,29.91,6,1,14,0.00
2014-12-30,22.9,19.2,13.7,9.0,3.6,-2.0,65,52,34,30.32,30.18,10,2,12,0.00
2014-12-31,26.0,18.4,12.7,14.0,5.6,0.0,86,59,41,30.27,30.07,6,1,11,0.00
2015-1-1,32.0,27.6,22.4,19.0,14.0,10.0,69,57,44,30.07,29.85,14,4,19,0.00
2015-1-2,34.8,29.4,19.2,21.0,13.9,1.0,66,53,41,30.44,29.84,11,2,13,0.00